Regional Weather Roundup
Issued by NWS

Home | Current Version | Previous Version | Graphics & Text | Print | Product List | Glossary On
Versions: 1 2 3 4 5 6 7 8 9 10 11 12 13 14 15 16 17 18 19 20 21 22 23 24 25 26 27 28 29 30 31 32 33 34 35 36 37 38 39 40 41 42 43 44 45 46 47 48 49 50
739
ASUS43 KBIS 260502
RWRND

NORTH DAKOTA REGIONAL WEATHER ROUNDUP
NATIONAL WEATHER SERVICE BISMARCK ND
1200 AM CDT SUN MAR 26 2017

NOTE: "FAIR" INDICATES FEW OR NO CLOUDS BELOW 12,000 FEET WITH NO
SIGNIFICANT WEATHER AND/OR OBSTRUCTIONS TO VISIBILITY.


NDZ001>003-009>011-017-260600-
NORTHWEST NORTH DAKOTA

CITY           SKY/WX    TMP DP  RH WIND       PRES   REMARKS
WILLISTON      FAIR      45  32  60 NE5       29.88S
MINOT          CLOUDY    46  35  65 SW12      29.88R
MINOT AFB      CLOUDY    39  35  85 W7        29.88R
$$

NDZ018>021-031>035-040>046-260600-
SOUTHWEST NORTH DAKOTA

CITY           SKY/WX    TMP DP  RH WIND       PRES   REMARKS
BISMARCK       CLOUDY    43  34  70 SE5       29.93S
DICKINSON      CLOUDY    42  29  59 CALM      29.88S
GARRISON         N/A     39  33  79 CALM      29.90R
HETTINGER ARPT CLOUDY    46  32  58 CALM      29.90R
$$

NDZ004>008-012>016-024-026-027-054-260600-
NORTHEAST NORTH DAKOTA

CITY           SKY/WX    TMP DP  RH WIND       PRES   REMARKS
GRAND FORKS    PTCLDY    34  33  96 S7        30.00R
GRND FRKS AFB  CLOUDY    34  32  94 S7        30.00R
DEVILS LAKE    CLOUDY    34  32  92 S9        29.96R
$$

NDZ022-023-025-028>030-036>039-047>053-260600-
SOUTHEAST NORTH DAKOTA

CITY           SKY/WX    TMP DP  RH WIND       PRES   REMARKS
FARGO          CLOUDY    35  32  88 S9        30.02S
JAMESTOWN      FAIR      32  31  96 S9        29.96F
$$





USA.gov is the U.S. government's official web portal to all federal, state and local government web resources and services.